QPF
0.01 0.01 0.02 0.02 0.02 0.01 0.01 0.01 0.02 0.02 0.02 0.02 0.02 0.01 0.01 0.00 0.00 0.00 0.01 0.01 0.01 0.01 0.02 0.02 0.01 0.00 0.00 0.00 0.00 0.00 0.00 0.00 0.01 0.01 0.01 0.01 0.01 0.00 0.01 0.01 0.02 0.01 0.01
0.01 0.01 0.02 0.02 0.03 0.02 0.02 0.01 0.02 0.03 0.03 0.02 0.02 0.01 0.01 0.00 0.00 0.01 0.01 0.01 0.01 0.01 0.02 0.02 0.01 0.00 0.00 0.00 0.00 0.00 0.00 0.00 0.00 0.00 0.00 0.00 0.00 0.00 0.01 0.01 0.01 0.01 0.01
0.01 0.01 0.02 0.02 0.03 0.03 0.02 0.02 0.02 0.02 0.03 0.03 0.03 0.02 0.02 0.01 0.01 0.01 0.01 0.01 0.01 0.01 0.02 0.02 0.02 0.02 0.01 0.01 0.00 0.01 0.01 0.01 0.00 0.00 0.01 0.01 0.00 0.00 0.01 0.01 0.01 0.01 0.01
0.01 0.02 0.02 0.02 0.03 0.03 0.03 0.03 0.03 0.03 0.04 0.04 0.04 0.04 0.03 0.02 0.01 0.01 0.01 0.02 0.01 0.01 0.02 0.03 0.03 0.02 0.01 0.01 0.00 0.00 0.01 0.01 0.00 0.00 0.01 0.01 0.00 0.01 0.01 0.01 0.01 0.01 0.01
0.01 0.02 0.03 0.02 0.03 0.03 0.04 0.04 0.04 0.04 0.05 0.07 0.06 0.05 0.04 0.03 0.03 0.03 0.03 0.03 0.02 0.02 0.02 0.04 0.03 0.02 0.01 0.00 0.00 0.00 0.01 0.00 0.00 0.01 0.01 0.01 0.00 0.00 0.01 0.00 0.00 0.00 0.00
0.02 0.03 0.04 0.02 0.03 0.03 0.04 0.05 0.05 0.05 0.06 0.08 0.08 0.06 0.04 0.05 0.04 0.04 0.06 0.05 0.02 0.02 0.03 0.04 0.02 0.01 0.01 0.00 0.00 0.00 0.00 0.00 0.00 0.01 0.01 0.00 0.00 0.01 0.01 0.00 0.00 0.00 0.00
0.02 0.05 0.06 0.03 0.04 0.04 0.04 0.04 0.05 0.07 0.08 0.07 0.07 0.06 0.05 0.06 0.07 0.06 0.06 0.05 0.03 0.02 0.03 0.04 0.02 0.01 0.01 0.00 0.00 0.00 0.00 0.00 0.00 0.00 0.00 0.00 0.00 0.01 0.00 0.00 0.00 0.00 0.00
0.02 0.03 0.06 0.04 0.03 0.04 0.05 0.05 0.05 0.06 0.07 0.07 0.06 0.07 0.08 0.08 0.07 0.06 0.06 0.04 0.03 0.02 0.02 0.03 0.02 0.01 0.01 0.00 0.00 0.00 0.00 0.00 0.00 0.00 0.00 0.00 0.00 0.01 0.00 0.00 0.00 0.00 0.00
0.02 0.02 0.05 0.05 0.03 0.02 0.02 0.02 0.03 0.04 0.05 0.07 0.07 0.08 0.07 0.07 0.06 0.05 0.04 0.03 0.03 0.03 0.03 0.03 0.02 0.01 0.01 0.00 0.00 0.00 0.00 0.00 0.00 0.00 0.00 0.00 0.00 0.01 0.00 0.00 0.00 0.00 0.00
0.02 0.03 0.05 0.07 0.07 0.05 0.04 0.02 0.02 0.03 0.02 0.04 0.06 0.05 0.05 0.04 0.04 0.04 0.02 0.02 0.02 0.03 0.03 0.03 0.02 0.01 0.01 0.00 0.00 0.00 0.00 0.00 0.00 0.00 0.00 0.00 0.00 0.01 0.00 0.00 0.00 0.00 0.00
0.02 0.02 0.04 0.05 0.08 0.09 0.10 0.06 0.04 0.03 0.03 0.03 0.04 0.04 0.04 0.04 0.04 0.03 0.02 0.01 0.02 0.03 0.03 0.03 0.03 0.01 0.01 0.00 0.00 0.00 0.00 0.00 0.00 0.00 0.00 0.00 0.00 0.01 0.00 0.00 0.00 0.00 0.00
0.02 0.03 0.03 0.04 0.05 0.06 0.05 0.06 0.07 0.06 0.05 0.04 0.04 0.05 0.06 0.06 0.06 0.05 0.04 0.01 0.01 0.03 0.03 0.03 0.03 0.02 0.01 0.00 0.00 0.00 0.00 0.00 0.00 0.00 0.00 0.00 0.00 0.00 0.00 0.00 0.00 0.00 0.00
0.02 0.03 0.03 0.05 0.05 0.05 0.07 0.08 0.08 0.07 0.08 0.06 0.06 0.06 0.06 0.07 0.08 0.07 0.07 0.04 0.03 0.02 0.02 0.02 0.02 0.01 0.00 0.00 0.00 0.00 0.00 0.00 0.00 0.00 0.00 0.00 0.00 0.00 0.00 0.00 0.00 0.00 0.00
0.01 0.02 0.03 0.05 0.06 0.06 0.07 0.08 0.07 0.07 0.07 0.07 0.08 0.07 0.08 0.09 0.08 0.07 0.07 0.06 0.05 0.05 0.05 0.04 0.02 0.01 0.01 0.01 0.00 0.00 0.00 0.00 0.00 0.00 0.00 0.00 0.00 0.00 0.00 0.00 0.00 0.00 0.00
0.01 0.01 0.02 0.03 0.05 0.06 0.06 0.07 0.06 0.06 0.05 0.06 0.07 0.08 0.07 0.08 0.08 0.07 0.05 0.06 0.05 0.05 0.06 0.06 0.04 0.03 0.02 0.01 0.00 0.00 0.00 0.00 0.00 0.00 0.00 0.00 0.00 0.00 0.00 0.00 0.01 0.01 0.01
0.00 0.01 0.01 0.03 0.04 0.06 0.07 0.06 0.06 0.05 0.05 0.06 0.07 0.07 0.07 0.06 0.07 0.07 0.06 0.05 0.04 0.03 0.05 0.06 0.04 0.03 0.03 0.01 0.00 0.00 0.00 0.00 0.00 0.00 0.00 0.00 0.00 0.00 0.00 0.00 0.00 0.01 0.01
0.01 0.01 0.01 0.02 0.04 0.05 0.07 0.08 0.07 0.06 0.05 0.05 0.05 0.08 0.09 0.08 0.07 0.07 0.07 0.05 0.04 0.03 0.04 0.05 0.06 0.05 0.03 0.02 0.01 0.00 0.00 0.00 0.00 0.00 0.00 0.00 0.00 0.00 0.00 0.00 0.01 0.01 0.01
0.01 0.01 0.01 0.03 0.03 0.04 0.06 0.06 0.06 0.06 0.06 0.05 0.04 0.06 0.09 0.11 0.10 0.09 0.08 0.07 0.06 0.05 0.04 0.04 0.05 0.05 0.04 0.02 0.02 0.01 0.00 0.00 0.00 0.00 0.00 0.00 0.00 0.00 0.00 0.00 0.00 0.00 0.00
0.01 0.01 0.01 0.03 0.03 0.03 0.05 0.06 0.05 0.05 0.07 0.07 0.05 0.05 0.07 0.08 0.10 0.10 0.09 0.09 0.09 0.08 0.06 0.05 0.04 0.04 0.04 0.03 0.02 0.01 0.01 0.00 0.00 0.00 0.00 0.00 0.00 0.00 0.00 0.00 0.00 0.00 0.00
0.02 0.02 0.02 0.03 0.04 0.04 0.05 0.07 0.06 0.07 0.08 0.09 0.08 0.07 0.07 0.07 0.09 0.11 0.10 0.11 0.10 0.09 0.07 0.05 0.05 0.04 0.04 0.03 0.02 0.02 0.01 0.01 0.00 0.00 0.00 0.00 0.00 0.00 0.00 0.00 0.00 0.00 0.00
0.04 0.02 0.02 0.03 0.04 0.05 0.05 0.06 0.07 0.07 0.08 0.10 0.09 0.08 0.09 0.09 0.09 0.10 0.11 0.11 0.10 0.10 0.07 0.05 0.05 0.05 0.05 0.04 0.04 0.02 0.01 0.01 0.01 0.01 0.00 0.00 0.00 0.00 0.00 0.00 0.00 0.00 0.00
0.05 0.04 0.03 0.04 0.05 0.05 0.05 0.06 0.08 0.09 0.08 0.09 0.10 0.10 0.11 0.11 0.11 0.11 0.12 0.12 0.11 0.10 0.08 0.07 0.07 0.06 0.05 0.05 0.05 0.04 0.03 0.02 0.01 0.00 0.00 0.01 0.00 0.00 0.00 0.00 0.01 0.00 0.00
0.08 0.06 0.05 0.05 0.06 0.07 0.06 0.08 0.08 0.08 0.08 0.09 0.09 0.09 0.10 0.11 0.11 0.12 0.12 0.12 0.13 0.12 0.10 0.07 0.07 0.07 0.07 0.07 0.06 0.05 0.04 0.03 0.01 0.01 0.00 0.00 0.00 0.00 0.00 0.00 0.00 0.00 0.00
0.08 0.07 0.06 0.06 0.06 0.07 0.07 0.08 0.08 0.08 0.08 0.07 0.07 0.07 0.07 0.09 0.10 0.12 0.14 0.12 0.12 0.13 0.10 0.09 0.09 0.08 0.08 0.09 0.08 0.06 0.04 0.03 0.02 0.01 0.01 0.00 0.00 0.00 0.00 0.00 0.00 0.00 0.00
0.05 0.07 0.06 0.07 0.07 0.07 0.06 0.07 0.08 0.07 0.07 0.08 0.09 0.09 0.09 0.10 0.11 0.13 0.15 0.15 0.11 0.10 0.10 0.10 0.09 0.09 0.09 0.10 0.09 0.08 0.07 0.06 0.05 0.04 0.02 0.01 0.01 0.01 0.01 0.01 0.01 0.01 0.01
0.05 0.06 0.06 0.08 0.08 0.06 0.05 0.06 0.08 0.08 0.08 0.09 0.10 0.11 0.10 0.11 0.11 0.12 0.12 0.14 0.13 0.11 0.10 0.09 0.08 0.08 0.08 0.08 0.09 0.08 0.08 0.07 0.06 0.05 0.03 0.02 0.01 0.01 0.01 0.01 0.00 0.00 0.00
MSLP
1012.07 1011.78 1011.59 1011.56 1011.70 1012.00 1012.39 1012.79 1013.16 1013.45 1013.64 1013.77 1013.87 1013.99 1014.17 1014.40 1014.68 1014.96 1015.22 1015.43 1015.58 1015.68 1015.75 1015.84 1015.95 1016.10 1016.27 1016.44 1016.59 1016.70 1016.76 1016.79 1016.80 1016.82 1016.87 1016.95 1017.05 1017.15 1017.21 1017.22 1017.18 1017.08 1016.96
1012.24 1011.92 1011.71 1011.68 1011.84 1012.16 1012.57 1012.99 1013.36 1013.63 1013.82 1013.94 1014.04 1014.17 1014.36 1014.60 1014.88 1015.18 1015.43 1015.63 1015.78 1015.88 1015.97 1016.07 1016.20 1016.37 1016.56 1016.74 1016.89 1016.99 1017.04 1017.05 1017.06 1017.08 1017.13 1017.22 1017.34 1017.44 1017.51 1017.52 1017.46 1017.35 1017.20
1012.34 1011.99 1011.78 1011.76 1011.93 1012.27 1012.69 1013.13 1013.50 1013.78 1013.97 1014.09 1014.20 1014.34 1014.52 1014.76 1015.04 1015.32 1015.56 1015.75 1015.89 1016.00 1016.10 1016.23 1016.39 1016.59 1016.80 1016.99 1017.15 1017.23 1017.27 1017.26 1017.25 1017.27 1017.33 1017.43 1017.56 1017.69 1017.77 1017.79 1017.74 1017.63 1017.48
1012.37 1012.01 1011.79 1011.78 1011.97 1012.32 1012.76 1013.20 1013.58 1013.87 1014.07 1014.20 1014.32 1014.46 1014.65 1014.88 1015.14 1015.39 1015.62 1015.80 1015.94 1016.06 1016.19 1016.35 1016.56 1016.79 1017.02 1017.23 1017.37 1017.45 1017.46 1017.43 1017.41 1017.42 1017.48 1017.59 1017.74 1017.88 1017.99 1018.03 1018.00 1017.91 1017.79
1012.35 1011.99 1011.78 1011.78 1011.98 1012.33 1012.77 1013.21 1013.59 1013.89 1014.10 1014.25 1014.38 1014.53 1014.71 1014.94 1015.19 1015.43 1015.63 1015.81 1015.96 1016.10 1016.27 1016.47 1016.71 1016.98 1017.24 1017.45 1017.59 1017.65 1017.64 1017.59 1017.55 1017.55 1017.61 1017.73 1017.89 1018.05 1018.18 1018.25 1018.25 1018.19 1018.10
1012.34 1011.99 1011.79 1011.80 1012.00 1012.35 1012.76 1013.18 1013.55 1013.84 1014.05 1014.22 1014.36 1014.53 1014.73 1014.96 1015.20 1015.43 1015.64 1015.82 1015.98 1016.15 1016.35 1016.60 1016.88 1017.18 1017.45 1017.67 1017.80 1017.85 1017.82 1017.75 1017.70 1017.68 1017.74 1017.86 1018.02 1018.20 1018.35 1018.44 1018.47 1018.44 1018.39
1012.39 1012.06 1011.89 1011.90 1012.09 1012.40 1012.77 1013.15 1013.48 1013.75 1013.95 1014.12 1014.29 1014.48 1014.70 1014.94 1015.19 1015.43 1015.64 1015.83 1016.02 1016.22 1016.46 1016.74 1017.05 1017.37 1017.66 1017.87 1018.00 1018.03 1017.99 1017.91 1017.85 1017.83 1017.88 1018.00 1018.16 1018.34 1018.50 1018.60 1018.65 1018.65 1018.63
1012.53 1012.24 1012.10 1012.11 1012.27 1012.53 1012.83 1013.14 1013.41 1013.63 1013.82 1013.99 1014.18 1014.39 1014.64 1014.90 1015.17 1015.43 1015.66 1015.87 1016.08 1016.30 1016.57 1016.87 1017.20 1017.53 1017.81 1018.03 1018.15 1018.18 1018.13 1018.06 1017.99 1017.98 1018.03 1018.15 1018.31 1018.48 1018.63 1018.74 1018.79 1018.80 1018.79
1012.79 1012.55 1012.42 1012.42 1012.54 1012.72 1012.94 1013.16 1013.35 1013.51 1013.67 1013.83 1014.03 1014.27 1014.54 1014.84 1015.13 1015.41 1015.66 1015.89 1016.12 1016.37 1016.64 1016.95 1017.29 1017.61 1017.90 1018.11 1018.22 1018.25 1018.21 1018.15 1018.10 1018.10 1018.16 1018.29 1018.45 1018.61 1018.75 1018.84 1018.89 1018.89 1018.87
1013.11 1012.91 1012.81 1012.79 1012.85 1012.95 1013.07 1013.18 1013.28 1013.38 1013.49 1013.64 1013.84 1014.10 1014.40 1014.73 1015.05 1015.35 1015.63 1015.88 1016.12 1016.38 1016.66 1016.97 1017.30 1017.61 1017.88 1018.08 1018.19 1018.23 1018.20 1018.16 1018.14 1018.16 1018.25 1018.38 1018.55 1018.71 1018.83 1018.91 1018.93 1018.91 1018.88
1013.43 1013.28 1013.18 1013.14 1013.14 1013.15 1013.16 1013.17 1013.18 1013.21 1013.28 1013.41 1013.61 1013.88 1014.20 1014.55 1014.89 1015.22 1015.51 1015.78 1016.04 1016.30 1016.59 1016.89 1017.20 1017.50 1017.76 1017.95 1018.06 1018.10 1018.10 1018.08 1018.08 1018.14 1018.25 1018.40 1018.57 1018.73 1018.85 1018.91 1018.91 1018.87 1018.82
1013.66 1013.54 1013.45 1013.38 1013.31 1013.24 1013.16 1013.08 1013.01 1012.97 1013.00 1013.10 1013.30 1013.57 1013.90 1014.27 1014.63 1014.98 1015.29 1015.58 1015.86 1016.13 1016.42 1016.71 1017.02 1017.30 1017.54 1017.72 1017.83 1017.88 1017.90 1017.90 1017.93 1018.01 1018.14 1018.31 1018.49 1018.66 1018.78 1018.84 1018.83 1018.78 1018.70
1013.73 1013.63 1013.53 1013.43 1013.31 1013.17 1013.01 1012.86 1012.73 1012.65 1012.64 1012.73 1012.91 1013.17 1013.50 1013.87 1014.25 1014.61 1014.95 1015.27 1015.56 1015.85 1016.15 1016.46 1016.76 1017.03 1017.27 1017.44 1017.55 1017.60 1017.63 1017.64 1017.68 1017.77 1017.91 1018.10 1018.29 1018.48 1018.61 1018.68 1018.69 1018.63 1018.54
1013.61 1013.51 1013.39 1013.25 1013.08 1012.90 1012.71 1012.52 1012.35 1012.25 1012.22 1012.28 1012.44 1012.69 1013.00 1013.37 1013.75 1014.13 1014.49 1014.83 1015.16 1015.49 1015.81 1016.13 1016.45 1016.73 1016.96 1017.14 1017.24 1017.30 1017.32 1017.33 1017.37 1017.45 1017.59 1017.77 1017.98 1018.18 1018.34 1018.43 1018.47 1018.43 1018.35
1013.30 1013.18 1013.02 1012.85 1012.66 1012.46 1012.25 1012.06 1011.90 1011.78 1011.74 1011.78 1011.92 1012.14 1012.43 1012.77 1013.15 1013.54 1013.93 1014.31 1014.68 1015.05 1015.41 1015.77 1016.11 1016.41 1016.65 1016.83 1016.94 1016.99 1017.00 1017.00 1017.02 1017.09 1017.20 1017.37 1017.57 1017.78 1017.97 1018.11 1018.18 1018.19 1018.14
1012.84 1012.66 1012.47 1012.27 1012.07 1011.88 1011.70 1011.54 1011.40 1011.31 1011.26 1011.28 1011.38 1011.56 1011.81 1012.13 1012.49 1012.88 1013.30 1013.71 1014.14 1014.56 1014.97 1015.37 1015.75 1016.08 1016.35 1016.55 1016.67 1016.72 1016.72 1016.70 1016.69 1016.72 1016.80 1016.94 1017.13 1017.34 1017.54 1017.72 1017.84 1017.91 1017.91
1012.30 1012.05 1011.81 1011.59 1011.40 1011.24 1011.12 1011.01 1010.93 1010.86 1010.82 1010.82 1010.88 1011.00 1011.20 1011.47 1011.81 1012.20 1012.63 1013.09 1013.56 1014.04 1014.51 1014.96 1015.37 1015.74 1016.04 1016.26 1016.41 1016.47 1016.48 1016.45 1016.41 1016.40 1016.44 1016.54 1016.69 1016.89 1017.10 1017.31 1017.48 1017.60 1017.65
1011.74 1011.40 1011.10 1010.86 1010.70 1010.60 1010.55 1010.52 1010.50 1010.47 1010.43 1010.41 1010.42 1010.48 1010.62 1010.84 1011.15 1011.53 1011.98 1012.47 1012.98 1013.51 1014.02 1014.51 1014.97 1015.38 1015.71 1015.98 1016.16 1016.25 1016.28 1016.26 1016.21 1016.17 1016.17 1016.21 1016.32 1016.48 1016.69 1016.90 1017.11 1017.27 1017.38
1011.23 1010.78 1010.41 1010.16 1010.02 1009.98 1010.01 1010.07 1010.11 1010.12 1010.09 1010.05 1010.01 1010.01 1010.08 1010.25 1010.52 1010.90 1011.35 1011.87 1012.42 1012.98 1013.53 1014.05 1014.54 1014.98 1015.36 1015.67 1015.90 1016.05 1016.12 1016.13 1016.09 1016.04 1016.00 1016.00 1016.05 1016.16 1016.33 1016.53 1016.74 1016.93 1017.08
1010.77 1010.21 1009.77 1009.49 1009.38 1009.40 1009.50 1009.63 1009.74 1009.79 1009.77 1009.70 1009.61 1009.56 1009.58 1009.70 1009.95 1010.31 1010.78 1011.32 1011.89 1012.47 1013.04 1013.59 1014.09 1014.56 1014.97 1015.33 1015.63 1015.84 1015.98 1016.04 1016.04 1016.00 1015.94 1015.89 1015.89 1015.94 1016.05 1016.21 1016.40 1016.59 1016.75
1010.39 1009.71 1009.19 1008.88 1008.77 1008.83 1008.99 1009.18 1009.33 1009.41 1009.40 1009.31 1009.19 1009.10 1009.08 1009.18 1009.41 1009.78 1010.26 1010.81 1011.40 1012.00 1012.58 1013.12 1013.63 1014.11 1014.55 1014.96 1015.32 1015.61 1015.83 1015.97 1016.03 1016.01 1015.95 1015.88 1015.82 1015.80 1015.84 1015.93 1016.07 1016.23 1016.39
1010.09 1009.28 1008.68 1008.32 1008.19 1008.26 1008.45 1008.67 1008.86 1008.95 1008.95 1008.85 1008.71 1008.60 1008.57 1008.66 1008.91 1009.29 1009.79 1010.37 1010.97 1011.57 1012.14 1012.68 1013.18 1013.66 1014.12 1014.56 1014.98 1015.35 1015.66 1015.88 1016.01 1016.04 1016.00 1015.91 1015.80 1015.71 1015.67 1015.68 1015.75 1015.87 1016.00
1009.87 1008.96 1008.26 1007.83 1007.66 1007.70 1007.88 1008.11 1008.30 1008.40 1008.39 1008.30 1008.16 1008.05 1008.03 1008.15 1008.41 1008.83 1009.36 1009.96 1010.59 1011.19 1011.75 1012.27 1012.75 1013.21 1013.67 1014.13 1014.59 1015.03 1015.42 1015.73 1015.94 1016.03 1016.01 1015.92 1015.78 1015.63 1015.52 1015.45 1015.45 1015.50 1015.59
1009.76 1008.75 1007.96 1007.45 1007.21 1007.19 1007.32 1007.51 1007.68 1007.78 1007.77 1007.68 1007.56 1007.48 1007.49 1007.64 1007.95 1008.40 1008.97 1009.60 1010.24 1010.84 1011.39 1011.88 1012.34 1012.77 1013.22 1013.69 1014.17 1014.66 1015.11 1015.49 1015.77 1015.92 1015.95 1015.87 1015.72 1015.54 1015.36 1015.23 1015.15 1015.14 1015.18
1009.80 1008.72 1007.85 1007.24 1006.91 1006.80 1006.85 1006.98 1007.11 1007.17 1007.16 1007.08 1006.99 1006.94 1006.99 1007.18 1007.53 1008.02 1008.62 1009.27 1009.92 1010.52 1011.05 1011.52 1011.95 1012.35 1012.77 1013.23 1013.72 1014.23 1014.73 1015.16 1015.51 1015.72 1015.79 1015.75 1015.60 1015.41 1015.20 1015.01 1014.88 1014.82 1014.81
1010.02 1008.90 1007.96 1007.27 1006.82 1006.61 1006.56 1006.61 1006.67 1006.70 1006.68 1006.61 1006.53 1006.51 1006.59 1006.82 1007.19 1007.71 1008.32 1008.98 1009.63 1010.22 1010.74 1011.18 1011.58 1011.95 1012.35 1012.78 1013.27 1013.78 1014.29 1014.77 1015.15 1015.42 1015.55 1015.55 1015.44 1015.26 1015.05 1014.84 1014.67 1014.56 1014.51
Thickness
5764 5766 5764 5762 5762 5761 5760 5759 5758 5757 5756 5755 5753 5752 5751 5750 5749 5748 5747 5746 5744 5743 5742 5741 5739 5738 5737 5736 5735 5734 5734 5734 5733 5732 5732 5732 5732 5732 5732 5732 5731 5730 5730
5763 5763 5761 5759 5758 5757 5756 5755 5754 5753 5752 5751 5750 5749 5748 5747 5746 5745 5744 5743 5742 5741 5740 5738 5737 5736 5734 5733 5732 5731 5731 5730 5730 5729 5729 5729 5729 5729 5729 5728 5728 5727 5726
5760 5759 5757 5756 5755 5753 5752 5752 5751 5750 5749 5748 5747 5746 5745 5744 5743 5742 5741 5740 5739 5738 5737 5736 5734 5733 5731 5730 5729 5728 5728 5728 5727 5727 5727 5726 5725 5725 5725 5725 5724 5724 5723
5755 5754 5753 5751 5751 5750 5749 5748 5747 5746 5745 5744 5743 5742 5741 5741 5740 5739 5738 5737 5736 5735 5734 5733 5731 5730 5728 5727 5726 5726 5725 5725 5725 5725 5725 5724 5723 5722 5721 5721 5720 5720 5720
5749 5749 5748 5747 5746 5745 5745 5744 5743 5742 5742 5741 5740 5739 5738 5737 5737 5736 5735 5734 5733 5732 5731 5729 5728 5727 5725 5724 5723 5723 5722 5723 5723 5723 5723 5721 5720 5719 5718 5717 5717 5716 5716
5742 5742 5742 5742 5741 5741 5740 5740 5739 5739 5738 5737 5737 5736 5735 5734 5733 5733 5732 5731 5730 5729 5728 5726 5725 5723 5722 5721 5720 5719 5719 5720 5720 5720 5720 5719 5717 5716 5715 5714 5713 5713 5712
5733 5735 5735 5736 5736 5736 5736 5735 5735 5735 5735 5734 5733 5732 5732 5731 5730 5729 5728 5727 5726 5725 5724 5723 5721 5720 5719 5718 5717 5716 5716 5717 5718 5718 5717 5715 5714 5712 5711 5710 5710 5709 5709
5725 5728 5729 5730 5730 5731 5731 5731 5731 5731 5731 5730 5730 5729 5728 5727 5727 5726 5724 5723 5722 5721 5720 5719 5718 5717 5715 5714 5714 5713 5713 5714 5715 5715 5714 5712 5711 5709 5708 5707 5706 5706 5705
5717 5720 5721 5723 5724 5725 5726 5726 5727 5727 5727 5727 5726 5726 5725 5724 5723 5723 5721 5720 5719 5718 5717 5715 5714 5713 5712 5711 5710 5710 5710 5711 5711 5712 5711 5709 5708 5706 5705 5704 5703 5702 5701
5708 5711 5713 5715 5717 5719 5720 5721 5722 5722 5723 5723 5722 5722 5721 5721 5720 5719 5718 5717 5716 5714 5713 5712 5711 5709 5708 5707 5707 5706 5707 5707 5708 5709 5707 5706 5704 5703 5701 5700 5699 5698 5698
5698 5702 5706 5708 5711 5712 5714 5716 5717 5718 5718 5718 5718 5718 5717 5717 5716 5715 5714 5713 5712 5711 5710 5708 5707 5706 5705 5704 5703 5703 5703 5704 5705 5705 5704 5702 5701 5699 5698 5696 5695 5695 5694
5688 5693 5697 5700 5703 5706 5708 5710 5711 5713 5713 5714 5714 5714 5714 5713 5713 5712 5711 5710 5709 5708 5706 5705 5703 5702 5701 5700 5699 5699 5699 5701 5702 5702 5700 5699 5697 5695 5694 5693 5692 5691 5690
5680 5685 5689 5692 5695 5698 5701 5704 5706 5707 5709 5710 5710 5711 5711 5710 5709 5709 5707 5705 5704 5703 5702 5701 5699 5698 5698 5697 5697 5696 5697 5698 5699 5698 5696 5695 5693 5692 5690 5689 5688 5687 5686
5672 5676 5680 5684 5687 5691 5694 5696 5699 5701 5703 5705 5706 5707 5707 5706 5705 5705 5703 5701 5700 5700 5699 5697 5696 5695 5695 5695 5695 5694 5694 5695 5695 5695 5693 5691 5690 5688 5687 5685 5684 5683 5682
5663 5667 5672 5676 5679 5683 5686 5688 5692 5694 5697 5699 5701 5702 5702 5701 5700 5700 5699 5698 5697 5696 5695 5694 5693 5693 5692 5692 5692 5692 5692 5691 5691 5691 5689 5687 5686 5684 5682 5681 5680 5679 5678
5654 5658 5663 5667 5671 5674 5677 5680 5684 5687 5690 5692 5694 5695 5696 5696 5696 5695 5695 5694 5693 5693 5692 5691 5690 5689 5688 5689 5688 5689 5688 5688 5687 5686 5685 5683 5681 5680 5678 5677 5675 5674 5673
5644 5649 5653 5658 5662 5665 5669 5672 5676 5679 5682 5685 5687 5689 5690 5690 5691 5690 5690 5689 5689 5688 5687 5686 5685 5684 5683 5683 5682 5683 5683 5683 5683 5682 5680 5678 5677 5675 5674 5672 5671 5669 5668
5634 5638 5643 5648 5653 5656 5660 5664 5667 5671 5673 5676 5679 5681 5683 5684 5684 5684 5684 5684 5684 5683 5682 5681 5679 5678 5677 5676 5676 5676 5677 5677 5677 5677 5676 5674 5673 5671 5669 5667 5666 5664 5663
5625 5628 5632 5637 5642 5646 5650 5654 5658 5661 5664 5667 5670 5672 5674 5676 5677 5677 5677 5677 5678 5677 5676 5675 5673 5672 5670 5669 5669 5669 5669 5670 5670 5671 5670 5669 5668 5666 5664 5662 5661 5659 5657
5615 5619 5623 5628 5632 5636 5640 5644 5647 5651 5654 5658 5660 5663 5665 5667 5669 5670 5670 5671 5671 5670 5669 5668 5666 5665 5664 5663 5662 5661 5662 5663 5664 5664 5664 5664 5662 5661 5659 5657 5655 5654 5652
5605 5608 5613 5618 5622 5626 5629 5633 5635 5639 5643 5647 5650 5653 5656 5658 5660 5661 5662 5663 5663 5662 5662 5661 5659 5657 5655 5655 5652 5650 5653 5655 5656 5657 5658 5658 5657 5655 5653 5652 5650 5648 5647
5594 5597 5602 5607 5612 5616 5620 5624 5626 5629 5633 5637 5640 5643 5645 5648 5650 5652 5653 5654 5655 5654 5653 5652 5651 5648 5647 5647 5644 5640 5639 5642 5647 5651 5650 5650 5650 5648 5647 5646 5644 5643 5641
5582 5586 5592 5597 5601 5606 5610 5613 5616 5618 5622 5625 5627 5630 5633 5636 5639 5641 5644 5644 5645 5645 5644 5644 5644 5641 5639 5638 5638 5635 5631 5632 5635 5640 5643 5643 5642 5641 5640 5639 5638 5636 5635
5572 5577 5582 5587 5591 5595 5599 5603 5605 5607 5609 5612 5615 5618 5621 5625 5627 5630 5633 5633 5634 5635 5634 5635 5636 5635 5632 5629 5629 5630 5630 5630 5626 5627 5632 5635 5635 5634 5633 5632 5631 5630 5629
5563 5568 5572 5576 5580 5583 5587 5591 5594 5596 5598 5601 5604 5606 5609 5612 5615 5618 5620 5621 5623 5623 5624 5625 5626 5625 5624 5622 5621 5621 5620 5620 5621 5618 5620 5623 5624 5626 5626 5626 5625 5624 5622
5555 5558 5562 5566 5569 5572 5575 5578 5582 5585 5587 5590 5592 5595 5597 5599 5602 5605 5608 5609 5611 5612 5613 5614 5615 5615 5615 5614 5614 5613 5613 5612 5612 5611 5611 5613 5614 5617 5618 5618 5617 5616 5614